[[{"header":{"parameterUnit":"m.s-1","parameterCategory":1,"la1":30.2992,"la2":30.254,"lo1":-89.0895,"lo2":-89.0443,"dy":0.0025,"dx":0.0025,"nx":19,"ny":19,"refTime":"2026-05-24T09:00:00:Z","depth":0,"parameterNumber":2,"parameterNumberName":"U-component_of_WINDS"},"data":[0,0,0,-0.2345,-0.2346,-0.2358,-0.2358,-0.2376,-0.2376,0,0,0,0,0,0,0,0,0,0,0,-0.2341,-0.2341,-0.2345,-0.2346,-0.2358,-0.2358,-0.2376,-0.2376,0,0,0,0,0,0,0,0,0,0,0,-0.2341,-0.2341,-0.2341,-0.2346,-0.2358,-0.2358,-0.2376,-0.2366,0,0,0,0,0,0,0,0,0,0,-0.2354,-0.2348,-0.2341,-0.2341,-0.2346,-0.2358,-0.2358,-0.2366,-0.2367,-0.237,0,-0.2371,0,-0.2374,-0.2377,-0.2377,0,0,0,-0.2347,-0.2347,-0.2351,-0.2341,-0.2346,-0.2358,-0.2353,-0.2366,-0.2368,-0.2372,-0.2372,-0.2372,-0.2374,-0.2377,-0.2377,-0.239,-0.239,0,0,-0.2346,-0.2343,-0.2351,-0.2352,-0.2348,-0.2353,-0.2353,-0.2367,-0.2367,-0.2372,-0.2373,-0.2375,-0.2377,-0.2378,-0.239,-0.239,0,0,0,-0.2343,-0.2342,-0.2346,-0.2351,-0.2353,-0.2353,-0.2354,-0.2367,-0.2368,-0.2373,-0.2375,-0.2378,-0.2378,-0.239,-0.239,-0.2386,0,0,0,-0.2343,-0.234,-0.2346,-0.2344,-0.2353,-0.236,-0.2353,-0.2367,-0.2369,-0.2375,-0.2378,-0.2378,-0.239,-0.239,-0.2386,-0.2385,0,0,0,-0.234,-0.234,-0.2341,-0.2343,-0.2348,-0.236,-0.2362,-0.2368,-0.237,-0.2377,-0.2378,-0.239,-0.239,-0.2386,-0.2385,-0.2387,0,0,0,-0.2337,-0.2338,-0.2341,-0.2344,-0.2348,-0.2357,-0.2362,-0.2369,-0.2374,-0.2378,-0.239,-0.239,-0.2386,-0.2385,-0.2387,-0.2388,-0.2388,0,0,-0.2336,-0.2337,-0.2339,-0.2343,-0.2349,-0.2355,-0.2362,-0.2371,-0.2376,-0.2386,-0.2386,-0.2386,-0.2385,-0.2387,-0.239,-0.239,0,0,0,-0.2338,-0.2339,-0.2342,-0.2346,-0.2353,-0.236,-0.2368,-0.2372,-0.2381,-0.238,-0.2388,-0.2387,-0.2389,-0.239,-0.239,-0.2392,-0.239,-0.239,-0.239,-0.2331,-0.2337,-0.2341,-0.2349,-0.2354,-0.2364,-0.2369,-0.2376,-0.2381,-0.2383,-0.2385,-0.2386,-0.2387,-0.2387,-0.2389,-0.2387,-0.2387,-0.2387,-0.2387,-0.2331,-0.2334,-0.2341,-0.2347,-0.2354,-0.236,-0.2371,-0.2375,-0.2383,-0.2384,-0.2386,-0.2387,-0.2387,-0.2389,-0.2387,-0.2387,-0.2387,-0.2387,-0.2387,-0.2327,-0.2329,-0.2334,-0.2342,-0.2349,-0.2359,-0.2366,-0.2373,-0.238,-0.2381,-0.2386,-0.2386,-0.2387,-0.2383,-0.2383,-0.2383,-0.2383,-0.2383,-0.2383,-0.232,-0.2325,-0.233,-0.2339,-0.2344,-0.2351,-0.2363,-0.2369,-0.2378,-0.2382,-0.2382,-0.2388,-0.2385,-0.2384,-0.2383,-0.2383,-0.2383,-0.2383,-0.2383,-0.2317,-0.2319,-0.2326,-0.2331,-0.2343,-0.235,-0.2359,-0.2371,-0.2378,-0.2382,-0.2388,-0.2385,-0.2387,-0.2387,-0.2386,-0.2386,-0.2386,-0.2386,-0.2386,-0.2313,-0.2315,-0.2324,-0.2332,-0.2341,-0.2351,-0.2361,-0.2372,-0.2383,-0.2388,-0.239,-0.239,-0.239,-0.2392,-0.2392,-0.2391,-0.2392,-0.2392,-0.2392,-0.2311,-0.2315,-0.2321,-0.2331,-0.2342,-0.2351,-0.2362,-0.2373,-0.2387,-0.2393,-0.2392,-0.2392,-0.2392,-0.2392,-0.2396,-0.2396,-0.2395,0,0]},{"header":{"parameterUnit":"m.s-1","parameterCategory":1,"la1":30.2992,"la2":30.254,"lo1":-89.0895,"lo2":-89.0443,"dy":0.0025,"dx":0.0025,"nx":19,"ny":19,"refTime":"2026-05-24T09:00:00:Z","depth":0,"parameterNumber":3,"parameterNumberName":"V-component_of_WINDS"},"data":[0,0,0,3.7374,3.7374,3.7367,3.7366,3.7378,3.7379,0,0,0,0,0,0,0,0,0,0,0,3.7392,3.7392,3.7374,3.7374,3.7367,3.7366,3.7378,3.7379,0,0,0,0,0,0,0,0,0,0,0,3.7391,3.7392,3.7393,3.7374,3.7367,3.7366,3.7378,3.7376,0,0,0,0,0,0,0,0,0,0,3.7379,3.7411,3.7392,3.7393,3.7374,3.7367,3.7366,3.7375,3.7376,3.7392,0,3.7411,0,3.7395,3.7381,3.7381,0,0,0,3.7363,3.7411,3.7395,3.7393,3.7375,3.7367,3.7367,3.7375,3.7376,3.7393,3.7411,3.7411,3.7396,3.7381,3.7381,3.7512,3.7513,0,0,3.7363,3.7398,3.7394,3.7396,3.74,3.7367,3.7367,3.7376,3.7397,3.7411,3.7411,3.7396,3.7381,3.7382,3.7511,3.7513,0,0,0,3.7372,3.7399,3.7382,3.7396,3.7393,3.7367,3.7367,3.7397,3.7389,3.7411,3.7396,3.7382,3.7382,3.751,3.7512,3.7602,0,0,0,3.7372,3.7404,3.7383,3.7405,3.7394,3.7396,3.7389,3.7388,3.7388,3.7396,3.7382,3.7382,3.7509,3.7511,3.7597,3.7639,0,0,0,3.7387,3.7406,3.741,3.7406,3.7404,3.7394,3.7386,3.7387,3.738,3.7381,3.7382,3.7508,3.7511,3.7592,3.7632,3.7683,0,0,0,3.7413,3.7491,3.7412,3.7493,3.7405,3.7451,3.7386,3.7419,3.7431,3.7382,3.7509,3.7512,3.7591,3.7627,3.7678,3.7733,3.7759,0,0,3.7531,3.7507,3.7552,3.748,3.755,3.745,3.7531,3.7509,3.7477,3.7502,3.7505,3.7599,3.7631,3.7682,3.7894,3.7915,0,0,0,3.7601,3.7634,3.7645,3.7658,3.7643,3.7633,3.7595,3.7586,3.7605,3.7498,3.763,3.7649,3.7677,3.7701,3.7719,3.774,3.7525,3.7524,3.7524,3.782,3.7774,3.7844,3.7797,3.7811,3.7769,3.7775,3.7756,3.7707,3.7738,3.7746,3.788,3.7909,3.7923,3.7945,3.7771,3.7771,3.7771,3.7772,3.7988,3.8027,3.7958,3.8001,3.7952,3.7987,3.7949,3.7912,3.7937,3.7871,3.7894,3.7826,3.7947,3.7964,3.7778,3.7777,3.7776,3.7776,3.7775,3.8126,3.8136,3.8124,3.8137,3.8151,3.81,3.8126,3.808,3.8036,3.8059,3.806,3.8059,3.805,3.8063,3.8063,3.8064,3.8064,3.8065,3.8065,3.8274,3.8257,3.8286,3.8275,3.8276,3.8271,3.8228,3.8227,3.8214,3.8178,3.8177,3.8124,3.7968,3.7929,3.8072,3.8071,3.807,3.8069,3.8069,3.8462,3.8411,3.8456,3.8457,3.8438,3.8454,3.8394,3.8396,3.8388,3.8402,3.8342,3.8235,3.8207,3.8192,3.816,3.8353,3.8353,3.8353,3.8353,3.8578,3.8558,3.8592,3.8596,3.8595,3.8544,3.8593,3.8559,3.8516,3.8507,3.8472,3.8426,3.8413,3.8392,3.8373,3.8342,3.8577,3.8578,3.8578,3.869,3.8668,3.872,3.8677,3.8659,3.8643,3.8687,3.8692,3.8633,3.8586,3.8499,3.849,3.8414,3.8392,3.8344,3.8316,3.8258,0,0]}]]